COSMOS 2004

导读 | 星芒AI

COSMOS 2004 是一颗由俄罗斯发射的军用通信卫星,于2004年发射升空。该卫星属于俄罗斯的军事通信系统,用于支持国家安全和军事指挥通信。其具体轨道参数和任务细节未公开,属于高度机密项目。COSMOS 系列卫星自20世纪60年代起由苏联/俄罗斯发射,涵盖多种用途,包括通信、侦察和气象监测等。COSMOS 2004 的发射体现了俄罗斯在维护其全球军事通信能力方面的重要努力。

基本信息
目录编号:
19826
目录名称:
COSMOS 2004
国际标识:
1989-017A
轨道中心:
EARTH
卫星名称:
COSMOS 2004
卫星全名:
--
卫星状态:
在轨 (已飞行13398 天)
发射日期:
1989-02-22 UTC
国别 :
俄罗斯(独联体) (CIS)
星等 :
--
轨道信息
数据来源 国际轨道数据
星历时间: 2025-10-28T19:35:55+0800
19小时前
查看轨道信息
半长轴: 7368.653km
偏心率: 0.0030327
轨道倾角: 82.949°
近地点辐角 171.568°
升交点赤经 94.036°
平近点角 249.376°
近地点: 968.171km
远地点: 1012.865km
周期: 104.916分钟
每日圈数: 13.725262
详细信息
使用方式:
暂无
2D轨道图
3D轨道图
轨道高度分析图
轨道倾角分析图
轨道综合分析图
查看轨道综合分析图